[[{"header":{"parameterUnit":"m.s-1","parameterCategory":1,"la1":30.2991,"la2":30.254,"lo1":-89.0895,"lo2":-89.0444,"dy":0.0017,"dx":0.0017,"nx":28,"ny":28,"refTime":"2024-04-10T09:00:00:Z","depth":0,"parameterNumber":2,"parameterNumberName":"U-component_of_WINDS"},"data":[0,0,0,0,0,0,0,0,0,0,0,0,0,0,0,0,0,0,0,0,0,0,0,0,0,0,0,0,0,0,0,0,0,0,0,0,0,0,0,0,0,0,0,0,0,0,0,0,0,0,0,0,0,0,0,0,0,0,-4.0702,-4.0704,0,-4.0943,-4.0946,-4.0949,-4.1038,-4.1037,-4.1037,-4.1036,-4.1283,-4.1291,-4.1298,0,0,0,0,0,0,0,0,0,0,0,0,0,-4.032,-4.0326,-4.0702,-4.0705,-4.0708,-4.0943,-4.0946,-4.0949,-4.1038,-4.1037,-4.1037,-4.1036,-4.1281,-4.129,-4.1298,0,0,0,0,0,0,0,0,0,0,0,0,0,-4.0516,-4.0328,-4.0701,-4.078,-4.079,-4.0942,-4.0946,-4.095,-4.1039,-4.1037,-4.1036,-4.1035,-4.1278,-4.1289,-4.13,-4.1391,0,0,-4.1333,-4.1338,0,0,0,0,0,0,0,0,-4.0504,-4.053,-4.0766,-4.0775,-4.0786,-4.0959,-4.0902,-4.1098,-4.1039,-4.0944,-4.1036,-4.1035,-4.1177,-4.1196,-4.1244,-4.1402,-4.1413,-4.1334,-4.1341,-4.1345,-4.1349,0,0,0,0,0,0,0,-4.0491,-4.052,-4.0797,-4.0769,-4.0782,-4.0805,-4.0831,-4.094,-4.1064,-4.0952,-4.0959,-4.0987,-4.1182,-4.1233,-4.125,-4.1416,-4.1334,-4.1344,-4.135,-4.1355,-4.1663,-4.1665,0,0,0,0,0,0,-4.0464,-4.0508,-4.079,-4.0805,-4.064,-4.0812,-4.0842,-4.0905,-4.1063,-4.1086,-4.0988,-4.099,-4.1215,-4.1237,-4.1259,-4.1377,-4.1345,-4.1356,-4.1362,-4.1662,-4.1664,-4.1666,0,0,0,0,0,0,-4.0455,-4.0488,-4.078,-4.0658,-4.0697,-4.082,-4.089,-4.091,-4.0961,-4.109,-4.1112,-4.1017,-4.1215,-4.1244,-4.1358,-4.1387,-4.1361,-4.1371,-4.166,-4.1662,-4.1665,-4.1612,0,0,0,0,0,0,-4.0444,-4.0484,-4.052,-4.0658,-4.0703,-4.0873,-4.0892,-4.0916,-4.098,-4.0986,-4.1123,-4.1145,-4.1216,-4.1341,-4.1368,-4.1401,-4.1379,-4.1658,-4.1661,-4.1664,-4.1611,-4.1612,-4.1613,0,0,0,0,0,-4.043,-4.0495,-4.0521,-4.0554,-4.075,-4.0875,-4.0901,-4.0981,-4.0982,-4.1019,-4.1102,-4.114,-4.1379,-4.1352,-4.1384,-4.142,-4.1656,-4.166,-4.1664,-4.1611,-4.1612,-4.1613,0,0,0,0,0,0,-4.0356,-4.0515,-4.0545,-4.0657,-4.0752,-4.089,-4.0938,-4.0979,-4.1076,-4.1077,-4.1174,-4.1204,-4.131,-4.1377,-4.1344,-4.1517,-4.152,-4.1531,-4.147,-4.1471,-4.1472,-4.1453,-4.1388,0,0,0,0,0,-4.0353,-4.0441,-4.0575,-4.066,-4.0707,-4.0814,-4.0872,-4.0926,-4.1028,-4.1069,-4.116,-4.1258,-4.1355,-4.1417,-4.1514,-4.1622,-4.1654,-4.1663,-4.1664,-4.1664,-4.1671,-4.1734,-4.174,-4.1678,-4.1678,-4.1678,0,0,-4.0347,-4.0445,-4.0494,-4.0648,-4.0728,-4.0818,-4.0847,-4.094,-4.1008,-4.1083,-4.1196,-4.1266,-4.1382,-4.1494,-4.1548,-4.1553,-4.1696,-4.1668,-4.1667,-4.1675,-4.1739,-4.1744,-4.1749,-4.168,-4.168,-4.1679,0,0,-4.0382,-4.0464,-4.0545,-4.0625,-4.0746,-4.0817,-4.0836,-4.0969,-4.1019,-4.1134,-4.1192,-4.1275,-4.144,-4.1521,-4.1583,-4.1651,-4.169,-4.168,-4.1682,-4.1743,-4.1748,-4.1752,-4.1777,-4.1784,-4.1687,-4.1687,-4.1687,0,-4.0359,-4.0496,-4.0581,-4.0672,-4.0738,-4.0811,-4.0894,-4.0968,-4.1114,-4.1158,-4.1162,-4.1372,-4.1455,-4.1587,-4.1604,-4.1652,-4.1677,-4.1664,-4.174,-4.1746,-4.1751,-4.1776,-4.1784,-4.1684,-4.1685,-4.1685,-4.1685,0,-4.0462,-4.0557,-4.0608,-4.0747,-4.0819,-4.0905,-4.1005,-4.1068,-4.1116,-4.1187,-4.1305,-4.1407,-4.1526,-4.1562,-4.161,-4.1701,-4.1701,-4.1721,-4.1726,-4.1754,-4.1778,-4.1788,-4.1681,-4.1682,-4.1683,-4.1683,0,0,-4.0456,-4.0643,-4.066,-4.0725,-4.0864,-4.0939,-4.1029,-4.1146,-4.1198,-4.1297,-4.1375,-4.1515,-4.1535,-4.1606,-4.1664,-4.1717,-4.1764,-4.1731,-4.1736,-4.1734,-4.1872,-4.1855,-4.1865,-4.1792,-4.1794,-4.1796,-4.1862,0,-4.0509,-4.0673,-4.0753,-4.0882,-4.0971,-4.1042,-4.1121,-4.1215,-4.1285,-4.137,-4.1448,-4.1545,-4.1564,-4.1607,-4.1663,-4.1746,-4.1793,-4.1743,-4.1866,-4.1869,-4.1834,-4.1878,-4.186,-4.1918,-4.1872,-4.1874,-4.1875,0,-4.0593,-4.0691,-4.0829,-4.0959,-4.0999,-4.1068,-4.1183,-4.1263,-4.1373,-4.142,-4.1499,-4.1556,-4.1655,-4.1654,-4.1791,-4.1755,-4.1811,-4.1859,-4.1864,-4.1878,-4.1873,-4.1892,-4.1938,-4.1946,-4.1891,-4.189,-4.1889,0,-4.0575,-4.0742,-4.0846,-4.0899,-4.1054,-4.1101,-4.1167,-4.1275,-4.1341,-4.1441,-4.1484,-4.1594,-4.1655,-4.1739,-4.1825,-4.1816,-4.1954,-4.196,-4.1996,-4.1994,-4.2021,-4.2018,-4.2076,-4.2057,-4.2057,-4.2057,-4.2057,0,-4.0625,-4.0707,-4.084,-4.0904,-4.0998,-4.109,-4.118,-4.1253,-4.1348,-4.1428,-4.1497,-4.1571,-4.1679,-4.1767,-4.1835,-4.1939,-4.1965,-4.2006,-4.2023,-4.2,-4.1995,-4.2037,-4.2035,-4.206,-4.2059,-4.2059,-4.2058,0,-4.062,-4.0713,-4.0831,-4.0968,-4.1004,-4.1067,-4.1185,-4.125,-4.1324,-4.1424,-4.1453,-4.1568,-4.1675,-4.1769,-4.191,-4.1956,-4.2062,-4.2084,-4.2025,-4.2034,-4.2065,-4.2061,-4.2152,-4.2169,-4.2138,-4.2139,-4.2139,0,-4.0646,-4.0711,-4.0854,-4.0913,-4.0978,-4.1071,-4.1139,-4.1232,-4.13,-4.143,-4.1479,-4.1591,-4.1686,-4.1853,-4.195,-4.2059,-4.2083,-4.2108,-4.21,-4.2075,-4.2083,-4.2078,-4.2085,-4.2107,-4.2107,-4.2106,-4.2106,0,-4.0683,-4.0726,-4.082,-4.093,-4.1008,-4.11,-4.1194,-4.1238,-4.1349,-4.1422,-4.1532,-4.1605,-4.175,-4.186,-4.198,-4.2049,-4.2097,-4.2108,-4.2123,-4.2099,-4.2063,-4.2083,-4.2024,-4.2106,-4.2106,-4.2106,-4.2106,-4.2106,-4.0695,-4.0756,-4.0866,-4.0969,-4.1049,-4.1136,-4.1204,-4.1286,-4.1379,-4.1504,-4.1554,-4.1666,-4.1776,-4.1941,-4.2011,-4.2101,-4.2109,-4.2129,-4.2134,-4.2138,-4.2134,-4.2049,-4.2123,-4.2123,-4.2123,-4.2123,-4.2123,0,-4.0735,-4.081,-4.0904,-4.1032,-4.1113,-4.1151,-4.1257,-4.1323,-4.142,-4.1518,-4.1609,-4.1736,-4.1844,-4.195,-4.2063,-4.2115,-4.214,-4.2142,-4.2139,-4.2154,-4.212,-4.2096,-4.212,-4.212,-4.212,-4.212,-4.212,-4.212,-4.0765,-4.087,-4.0926,-4.1072,-4.1147,-4.1257,-4.1315,-4.1395,-4.1473,-4.1612,-4.1701,-4.177,-4.1871,-4.1993,-4.2094,-4.2122,-4.2161,-4.2157,-4.2191,-4.2157,-4.2156,-4.2155,-4.2134,-4.2164,-4.2165,-4.2218,-4.2218,-4.2219]},{"header":{"parameterUnit":"m.s-1","parameterCategory":1,"la1":30.2991,"la2":30.254,"lo1":-89.0895,"lo2":-89.0444,"dy":0.0017,"dx":0.0017,"nx":28,"ny":28,"refTime":"2024-04-10T09:00:00:Z","depth":0,"parameterNumber":3,"parameterNumberName":"V-component_of_WINDS"},"data":[0,0,0,0,0,0,0,0,0,0,0,0,0,0,0,0,0,0,0,0,0,0,0,0,0,0,0,0,0,0,0,0,0,0,0,0,0,0,0,0,0,0,0,0,0,0,0,0,0,0,0,0,0,0,0,0,0,0,10.8697,10.8698,0,10.8825,10.8827,10.8828,10.8793,10.8791,10.8788,10.8786,10.8906,10.8912,10.8917,0,0,0,0,0,0,0,0,0,0,0,0,0,10.841,10.8416,10.8697,10.8698,10.87,10.8825,10.8827,10.8829,10.8794,10.8791,10.8787,10.8785,10.8905,10.8911,10.8918,0,0,0,0,0,0,0,0,0,0,0,0,0,10.8536,10.8417,10.8696,10.8698,10.8699,10.8825,10.8827,10.8829,10.8794,10.8791,10.8787,10.8783,10.8902,10.8911,10.8919,10.9047,0,0,10.8944,10.8948,0,0,0,0,0,0,0,0,10.8529,10.8546,10.8696,10.8698,10.87,10.879,10.877,10.8902,10.8795,10.8758,10.8786,10.8781,10.887,10.8881,10.8913,10.9053,10.9058,10.8945,10.895,10.8954,10.8956,0,0,0,0,0,0,0,10.852,10.8541,10.8747,10.8698,10.8701,10.8689,10.8702,10.8795,10.8833,10.8761,10.8759,10.8775,10.887,10.8905,10.8915,10.906,10.8945,10.8952,10.8958,10.8961,10.9311,10.9315,0,0,0,0,0,0,10.8512,10.8534,10.8743,10.8751,10.8604,10.8697,10.8712,10.8764,10.8832,10.8839,10.8778,10.8773,10.8892,10.8906,10.8919,10.9075,10.8954,10.8962,10.8966,10.9307,10.9312,10.9316,0,0,0,0,0,0,10.8506,10.8531,10.8738,10.8642,10.8668,10.8706,10.8765,10.8769,10.8804,10.8846,10.8851,10.8807,10.889,10.8908,10.9016,10.9079,10.8965,10.8973,10.9302,10.9308,10.9314,10.9386,0,0,0,0,0,0,10.8498,10.8529,10.8581,10.8644,10.8673,10.8836,10.8769,10.8774,10.882,10.8814,10.8875,10.8881,10.8888,10.9004,10.9025,10.9088,10.898,10.9296,10.9305,10.9312,10.9379,10.9394,10.9408,0,0,0,0,0,10.8488,10.8593,10.8583,10.8609,10.8739,10.884,10.8856,10.8866,10.8825,10.8876,10.8902,10.8879,10.9068,10.9016,10.9038,10.9105,10.9292,10.9302,10.9312,10.9372,10.9391,10.9408,0,0,0,0,0,0,10.8532,10.8602,10.8591,10.8721,10.8776,10.8834,10.8898,10.8886,10.895,10.8942,10.8947,10.8961,10.9073,10.9099,10.9039,10.9233,10.9174,10.9188,10.9212,10.9231,10.9245,10.9236,10.8987,0,0,0,0,0,10.8558,10.8638,10.8692,10.8802,10.883,10.886,10.8904,10.8907,10.8962,10.8983,10.9018,10.9069,10.914,10.9186,10.9254,10.9382,10.9394,10.9439,10.9453,10.9465,10.9478,10.9547,10.9568,10.9348,10.9348,10.9348,0,0,10.8611,10.8658,10.8708,10.8812,10.8854,10.8934,10.8879,10.8965,10.9023,10.8995,10.9102,10.9128,10.9185,10.9305,10.9359,10.933,10.9541,10.9478,10.9487,10.9493,10.9559,10.958,10.9599,10.9355,10.9353,10.9352,0,0,10.8748,10.8792,10.8889,10.8934,10.9,10.9019,10.9042,10.9103,10.9121,10.9228,10.9209,10.9276,10.9398,10.944,10.9478,10.9631,10.9611,10.9652,10.9729,10.9797,10.9814,10.983,10.9885,10.9904,10.9664,10.9665,10.9665,0,10.8804,10.8927,10.8939,10.9029,10.9074,10.9056,10.9152,10.9193,10.9276,10.9307,10.9274,10.9428,10.9465,10.9594,10.9632,10.9662,10.9687,10.9646,10.9811,10.9827,10.9841,10.9894,10.9914,10.9669,10.9669,10.9668,10.9668,0,10.8993,10.9078,10.9148,10.9234,10.9287,10.9378,10.9401,10.9453,10.9451,10.9473,10.9581,10.9625,10.9702,10.9732,10.9729,10.9861,10.9841,10.981,10.9751,10.9867,10.9916,10.9936,10.9676,10.9674,10.9673,10.9672,0,0,10.9163,10.9255,10.928,10.9319,10.9391,10.9455,10.9545,10.9624,10.9668,10.9725,10.98,10.9904,10.9876,10.9918,10.992,10.9979,11.0099,10.9941,10.9942,10.9969,11.0246,11.0269,11.0293,11.0086,11.009,11.0093,11.0241,0,10.9307,10.9471,10.9484,10.9629,10.9708,10.9691,10.9769,10.9819,10.9842,10.9908,10.9931,11.0006,10.9963,10.9989,11.0046,11.0072,11.0154,11.0061,11.0153,11.0156,11.0141,11.0318,11.0344,11.0482,11.026,11.0263,11.0266,0,10.9497,10.9566,10.9721,10.9782,10.9815,10.9886,10.9959,11.0024,11.0079,11.0091,11.0139,11.0133,11.0222,11.016,11.0281,11.0218,11.0256,11.0274,11.0279,11.0289,11.0219,11.0333,11.0526,11.0547,11.0296,11.0294,11.0292,0,10.9607,10.9736,10.9846,10.988,10.9954,11.0004,11.0036,11.0089,11.0135,11.0197,11.0227,11.0298,11.0336,11.0389,11.0401,11.0354,11.0523,11.0461,11.0533,11.0533,11.057,11.0568,11.0773,11.0593,11.0593,11.0593,11.0592,0,10.9767,10.9863,10.9897,10.9964,11.007,11.0082,11.0185,11.0213,11.0261,11.0331,11.0318,11.0384,11.0395,11.0462,11.0471,11.057,11.0587,11.0598,11.0599,11.06,11.0599,11.0625,11.0616,11.0598,11.0597,11.0596,11.0595,0,10.9908,10.9935,11.0054,11.0115,11.0133,11.0208,11.0259,11.0322,11.0342,11.0432,11.0453,11.0484,11.0563,11.058,11.0671,11.0677,11.0796,11.0787,11.0778,11.0778,11.085,11.0843,11.1079,11.1111,11.091,11.0912,11.0913,0,11.001,11.0084,11.0154,11.0203,11.0239,11.0316,11.0364,11.0378,11.0428,11.0498,11.0552,11.063,11.0693,11.0818,11.0847,11.0916,11.091,11.0988,11.092,11.0918,11.0912,11.0908,11.0915,11.1001,11.1003,11.1005,11.1006,0,11.0187,11.0197,11.027,11.0347,11.0407,11.0467,11.0524,11.0563,11.0584,11.064,11.0723,11.0772,11.0867,11.0944,11.1014,11.1043,11.1028,11.1027,11.1048,11.105,11.1042,11.1048,11.0815,11.1022,11.102,11.1019,11.1018,11.1018,11.0312,11.0377,11.0438,11.0519,11.0564,11.0618,11.0681,11.0711,11.0781,11.0863,11.0865,11.0954,11.1007,11.11,11.1134,11.1201,11.1177,11.1206,11.1214,11.1221,11.1229,11.1031,11.1214,11.1213,11.1213,11.1212,11.1212,0,11.049,11.0528,11.0603,11.0686,11.0749,11.0732,11.0795,11.0848,11.0928,11.098,11.1043,11.1137,11.1211,11.1246,11.1319,11.1367,11.1361,11.1385,11.1382,11.1389,11.1246,11.1222,11.1388,11.1388,11.1388,11.1388,11.1388,11.1388,11.059,11.07,11.0717,11.0847,11.0884,11.0975,11.1012,11.1061,11.1103,11.121,11.1273,11.1296,11.1341,11.1417,11.1483,11.1491,11.1519,11.1547,11.1551,11.1417,11.1399,11.1382,11.1359,11.1552,11.1552,11.1689,11.169,11.1691]}]]